Cloud_Cover
0 0 0 0 5 0 4 0 0 1 5 5 5 5 5 5 5 4 0 0 0 0 0 0 0 0 0 0 0 0 0 0 0 0 0 0 0 0 0 0 0 0 0 0
0 0 0 0 0 2 0 0 0 0 0 5 5 5 5 5 4 0 4 5 3 0 0 0 2 0 0 0 0 0 0 0 0 0 0 0 0 0 0 0 0 0 0 0
0 4 3 0 0 0 0 0 0 0 0 1 4 50 6 5 5 5 3 1 5 4 3 4 2 4 0 0 0 1 1 1 0 5 0 0 0 0 0 0 0 0 0 0
2 4 0 0 0 0 0 0 0 0 0 0 0 48 100 55 25 50 3 0 0 0 0 2 5 3 5 5 5 5 3 5 5 5 5 5 4 4 3 0 0 0 0 1
0 5 5 3 1 0 3 4 0 0 0 0 42 1 97 100 100 87 54 22 5 5 5 3 3 4 2 5 5 5 5 5 5 5 5 5 5 5 5 5 5 5 5 5
5 5 5 5 7 12 5 5 5 4 3 1 5 5 95 100 100 82 100 100 100 92 62 20 5 5 5 7 5 5 8 10 7 5 19 13 10 16 5 5 5 5 5 5
5 5 5 6 6 8 5 5 5 5 5 0 0 5 100 87 99 100 100 100 100 100 100 100 100 100 75 62 93 94 95 93 96 94 88 66 57 57 24 25 24 35 5 14
11 46 58 85 6 10 84 99 100 28 5 1 5 16 100 86 100 100 100 100 100 100 100 100 100 100 100 100 100 100 100 100 100 100 100 100 100 100 86 90 82 79 68 37
100 100 62 56 100 100 100 100 100 100 29 3 5 98 100 100 100 100 100 100 100 100 100 100 100 100 100 100 100 100 100 100 100 100 100 100 100 100 100 100 100 99 91 79
97 100 70 87 100 100 100 100 100 100 93 60 28 12 30 53 100 100 100 100 100 99 61 99 100 100 100 100 100 100 100 100 100 100 100 100 100 100 100 100 98 100 100 100
13 42 14 81 100 100 100 100 100 100 100 81 26 4 8 9 69 47 5 14 5 24 98 100 100 100 100 100 100 100 100 100 100 100 100 100 100 100 100 100 100 100 100 100
6 5 40 9 15 7 5 5 39 84 13 34 36 10 8 5 5 9 98 99 79 77 86 100 100 100 100 100 100 100 100 100 100 100 100 100 100 100 100 100 100 100 100 100
75 41 29 5 6 38 88 100 100 100 70 38 88 27 6 15 5 80 48 48 53 42 54 65 61 100 100 100 100 100 100 100 100 100 100 100 100 100 97 100 100 100 100 100
100 100 100 100 98 100 97 73 100 100 98 49 6 5 90 2 5 40 92 100 100 100 100 100 100 100 100 99 100 100 100 100 100 100 100 100 100 100 100 100 100 100 100 100
100 98 64 56 100 48 8 5 13 28 5 88 0 5 0 2 5 5 11 45 99 100 100 100 100 100 100 100 100 100 100 100 100 100 100 100 100 100 100 100 100 100 68 56
100 78 35 97 90 99 34 5 4 4 3 5 0 0 21 74 5 5 5 5 10 6 88 92 100 100 100 100 100 100 100 100 100 99 99 100 100 96 94 100 100 98 51 6
100 98 96 68 30 22 5 5 1 4 5 0 5 6 5 9 5 5 5 5 6 76 59 96 100 100 100 100 100 100 100 100 100 100 96 81 89 100 100 100 100 100 92 28
100 100 100 74 8 66 0 4 1 1 3 3 5 0 4 5 5 5 5 5 83 100 100 100 100 100 100 100 100 100 100 100 100 100 92 95 99 100 100 100 100 100 75 7
99 100 98 92 70 2 0 0 1 0 0 5 4 5 5 5 5 5 5 64 100 100 100 100 100 100 100 100 100 100 100 100 100 99 86 76 97 100 91 83 68 48 36 6
100 100 100 99 99 58 4 0 5 0 2 5 5 22 70 36 5 25 14 71 98 100 100 100 100 100 100 100 100 100 100 100 100 100 100 98 86 93 55 24 5 5 27 6
97 98 95 100 95 7 11 5 14 5 19 38 20 20 5 29 57 64 25 50 100 98 100 100 100 100 100 100 100 100 100 100 100 100 100 100 100 86 54 6 5 5 13 8
59 100 100 100 100 64 5 15 82 92 76 81 49 79 34 26 76 99 100 100 99 86 81 92 100 99 93 99 100 100 100 98 100 100 99 73 23 7 5 5 5 5 20 67
85 75 100 100 100 100 99 100 86 80 91 100 100 100 98 89 88 100 86 97 96 100 100 100 100 100 100 88 95 100 64 6 54 45 14 5 5 5 5 5 5 61 5 79
42 100 100 100 100 100 100 100 100 100 100 100 100 100 100 100 100 100 87 73 81 97 100 100 100 100 100 100 100 43 5 5 5 5 5 5 5 6 5 5 5 50 73 95
91 100 100 100 100 100 100 100 100 100 100 100 100 100 100 100 100 100 100 99 93 100 100 100 100 100 100 78 28 4 1 5 5 5 5 5 5 5 5 5 8 58 81 100
100 100 100 100 100 100 100 100 100 100 100 100 100 100 100 100 100 100 100 100 96 100 88 66 23 3 4 5 5 4 4 5 14 71 5 25 58 8 52 88 64 5 60 98